Zurück zum Katalog

COSMOS 1867 COOLANT

AktivLEO
NORAD 39672·DEBRIS·🇷🇺 Russia

Gestartet Jul 10, 1987 von Baikonur Cosmodrome

Loading…

Nächste Überflüge (nächste 24 Stunden)

TLE

AktuellSource: Space-Track

Epoche: Sep 14, 2026, 20:38 UTC

1 39672U 87060AK  26257.85997933  .00000165  00000-0  94266-4 0  9996
2 39672  65.0041 115.7986 0018456 278.9028  80.9968 14.34286345649539

Verfolge COSMOS 1867 COOLANT in Echtzeit mit AllMySat

Download on the App Store